Total_Precipitation_Accumulation
0.04 0.08 0.09 0.08 0.10 0.07 0.07 0.17 0.18 0.15 0.13 0.05 0.06 0.12 0.19 0.06 0.02 0.01 0.01 0.00 0.00 0.00 0.00 0.00 0.01 0.01 0.01 0.01 0.00 0.00 0.00 0.00 0.00
0.02 0.05 0.06 0.05 0.05 0.04 0.05 0.10 0.13 0.14 0.11 0.07 0.10 0.12 0.09 0.03 0.02 0.02 0.03 0.02 0.00 0.00 0.00 0.00 0.00 0.01 0.01 0.01 0.01 0.01 0.00 0.00 0.00
0.00 0.03 0.03 0.04 0.03 0.03 0.09 0.15 0.15 0.18 0.10 0.09 0.12 0.12 0.11 0.10 0.03 0.03 0.03 0.03 0.01 0.00 0.00 0.00 0.00 0.00 0.00 0.01 0.01 0.00 0.00 0.01 0.01
0.00 0.01 0.02 0.04 0.03 0.04 0.08 0.11 0.11 0.16 0.16 0.15 0.14 0.12 0.10 0.07 0.02 0.02 0.02 0.02 0.01 0.01 0.01 0.00 0.00 0.00 0.01 0.01 0.01 0.00 0.00 0.01 0.02
0.00 0.00 0.01 0.02 0.04 0.06 0.06 0.08 0.07 0.08 0.13 0.18 0.17 0.13 0.15 0.07 0.02 0.01 0.01 0.01 0.02 0.02 0.02 0.03 0.02 0.02 0.04 0.03 0.02 0.01 0.00 0.01 0.01
0.00 0.00 0.01 0.02 0.03 0.05 0.06 0.08 0.08 0.08 0.07 0.11 0.12 0.13 0.07 0.02 0.02 0.02 0.01 0.01 0.03 0.06 0.06 0.07 0.09 0.09 0.08 0.07 0.04 0.02 0.01 0.01 0.01
0.00 0.00 0.00 0.00 0.01 0.04 0.06 0.10 0.12 0.09 0.03 0.02 0.07 0.06 0.02 0.01 0.01 0.01 0.01 0.13 0.16 0.12 0.13 0.16 0.14 0.13 0.11 0.08 0.06 0.04 0.02 0.01 0.01
0.00 0.00 0.00 0.00 0.00 0.01 0.03 0.05 0.08 0.06 0.06 0.06 0.06 0.05 0.07 0.08 0.08 0.09 0.07 0.18 0.26 0.23 0.24 0.25 0.22 0.18 0.15 0.12 0.09 0.06 0.03 0.02 0.01
0.00 0.00 0.00 0.00 0.00 0.01 0.04 0.05 0.06 0.10 0.10 0.07 0.10 0.09 0.09 0.12 0.14 0.11 0.14 0.13 0.24 0.24 0.31 0.35 0.32 0.26 0.25 0.22 0.17 0.09 0.04 0.03 0.01
0.00 0.00 0.00 0.00 0.00 0.00 0.02 0.04 0.09 0.13 0.16 0.18 0.20 0.21 0.17 0.19 0.20 0.16 0.23 0.20 0.14 0.28 0.32 0.36 0.40 0.37 0.34 0.45 0.39 0.21 0.09 0.04 0.01
0.00 0.00 0.00 0.00 0.00 0.00 0.00 0.02 0.05 0.11 0.16 0.19 0.27 0.31 0.38 0.37 0.31 0.25 0.28 0.30 0.16 0.21 0.31 0.34 0.40 0.47 0.46 0.45 0.54 0.51 0.34 0.15 0.06
0.00 0.00 0.00 0.00 0.00 0.00 0.00 0.00 0.03 0.05 0.10 0.14 0.21 0.25 0.31 0.34 0.37 0.38 0.31 0.29 0.23 0.15 0.23 0.38 0.40 0.43 0.58 0.70 0.64 0.69 0.89 0.62 0.26
0.00 0.00 0.00 0.00 0.00 0.00 0.00 0.00 0.01 0.03 0.06 0.10 0.16 0.21 0.24 0.32 0.35 0.39 0.45 0.31 0.25 0.25 0.16 0.29 0.47 0.69 0.74 1.07 1.14 1.12 0.91 1.17 0.57
0.00 0.00 0.00 0.00 0.00 0.00 0.00 0.00 0.00 0.01 0.03 0.08 0.13 0.21 0.25 0.29 0.37 0.42 0.42 0.47 0.45 0.27 0.22 0.26 0.38 0.78 1.24 1.32 1.55 1.75 1.84 1.41 1.46
0.00 0.00 0.00 0.00 0.00 0.00 0.00 0.00 0.00 0.00 0.01 0.05 0.11 0.19 0.22 0.25 0.28 0.30 0.34 0.43 0.62 0.92 0.78 0.71 0.84 0.67 0.75 1.28 1.63 2.21 3.45 3.90 2.32
0.00 0.00 0.00 0.00 0.00 0.00 0.00 0.00 0.00 0.00 0.03 0.06 0.05 0.08 0.20 0.38 0.45 0.45 0.43 0.53 0.64 0.93 1.74 2.28 2.58 2.36 1.94 1.28 1.34 2.08 3.70 4.88 4.34
0.00 0.00 0.00 0.00 0.00 0.00 0.00 0.01 0.04 0.04 0.07 0.09 0.09 0.08 0.15 0.29 0.50 0.69 0.78 1.09 1.59 1.77 2.05 2.12 2.60 2.64 2.68 2.19 1.84 1.40 1.64 2.40 2.44
0.00 0.00 0.00 0.01 0.02 0.01 0.01 0.07 0.18 0.14 0.08 0.14 0.19 0.19 0.18 0.16 0.29 0.50 0.63 0.81 0.88 1.06 1.22 1.04 0.98 0.86 0.72 0.66 0.85 0.94 0.77 0.74 0.86
0.00 0.00 0.00 0.01 0.02 0.02 0.03 0.02 0.09 0.12 0.09 0.08 0.09 0.14 0.24 0.18 0.11 0.20 0.43 0.41 0.52 0.51 0.56 0.37 0.28 0.28 0.33 0.32 0.28 0.32 0.34 0.44 0.54
0.00 0.00 0.00 0.00 0.01 0.03 0.05 0.12 0.16 0.24 0.22 0.13 0.08 0.08 0.09 0.08 0.04 0.03 0.16 0.18 0.17 0.14 0.14 0.11 0.13 0.13 0.15 0.15 0.17 0.20 0.24 0.37 0.50